Погода в Обуховском

Россия / Свердловская область     56°50′00″N   62°36′30″E
темп.,
°C
ветер,
м/с
пор.,
м/с
влажн.,
%
обл.,
%
осадки,
мм/ч
давл.,
гПа
погр.,
м
13 мая, чт
чт1323:00+15ю115437 0.0 102611
02:00+14юз335875 0.0 102638
05:00+13з346476 0.0 102657
08:00+19зсз354894 0.0 1026295
11:00+24сз463272 0.0 10251547
14:00+27ссз462727 0.0 10242190
17:00+27ссз45275 0.0 10242477
20:00+23сз22415 0.0 102412
14 мая, пт
пт1423:00+19зсз11495 0.0 102511
02:00+16ююв22575 0.0 102514
05:00+15зюз225834 0.0 102620
08:00+21зюз35455 0.0 1026269
11:00+27зюз56315 0.0 10251421
14:00+29з46265 0.0 10232873
17:00+30з57235 0.0 10223392
20:00+24з37372 0.0 1022103
15 мая, сб
сб1523:00+20з37420 0.0 102295
02:00+17з36535 0.0 102279
05:00+16зюз37645 0.0 1022101
08:00+22з484853 0.0 1022355
11:00+27з57336 0.0 10211372
14:00+30з7102441 0.0 10202917
17:00+29з792799 0.0 10192921
20:00+24з49415 0.0 1019194
16 мая, вс
вс1623:00+20зсз36557 0.3 1020100
02:00+17з346817 0.1 102053
05:00+16з347278 0.1 102153
08:00+22з465156 0.0 1021288
11:00+28з56315 0.0 10201141
14:00+31з57235 0.0 10192372
17:00+31з682058 0.0 10183436
20:00+25зюз473719 0.0 1017110
17 мая, пн
пн1723:00+21зюз36465 0.0 101879
02:00+19зюз36525 0.0 101790
05:00+17зюз365620 0.0 101879
08:00+23зюз594459 0.0 1017354
11:00+29зюз611264 0.0 10163308
14:00+30з9122196 0.0 10153518
17:00+29з711256 0.0 10133436
20:00+24зсз49401 0.0 1013196